Regional Weather Roundup
Issued by NWS Charleston, SC

Home | Current Version | Previous Version | Text Only | Print | Product List | Glossary On
Versions: 1 2 3 4 5 6 7 8 9 10 11 12 13 14 15 16 17 18 19 20 21 22 23 24 25 26 27 28 29 30 31 32 33 34 35 36 37 38 39 40 41 42 43 44 45 46 47 48 49 50
000
ASUS42 KCHS 221225
RWRCHS

REGIONAL WEATHER ROUNDUP
NATIONAL WEATHER SERVICE CHARLESTON SC
800 AM EDT FRI AUG 22 2014

NOTE: "FAIR" INDICATES FEW OR NO CLOUDS BELOW 12,000 FEET WITH NO
SIGNIFICANT WEATHER AND/OR OBSTRUCTIONS TO VISIBILITY.

NOT ALL STATIONS ARE QUALITY CONTROLLED BY THE NATIONAL
WEATHER SERVICE. USE DATA WITH CAUTION...ESPECIALLY
DEWPOINT OBSERVATIONS.

SCZ027-030-031-034>040-042>050-221300-
...SOUTH CAROLINA...

CITY           SKY/WX    TMP DP  RH WIND       PRES   REMARKS
N CHARLESTON   MOSUNNY   81  77  88 W5        30.03R
6HR MIN TEMP:  79; 6HR MAX TEMP:  81;

WATERFRONT PRK   N/A     82 N/A N/A W5          N/A
FORT JOHNSON   NOT AVBL
MOUNT PLEASANT LGT RAIN  81  79  94 CALM      30.04R
JOHNS ISLAND   SUNNY     84  81  89 CALM      30.04R HX  98
PINOPOLIS        N/A     82  75  78 W5        29.94R
MONCKS CORNER    N/A     81  77  89 CALM      30.03R
SUMMERVILLE    FAIR      77  77 100 CALM      30.05R
BEAUFORT MCAS  MOSUNNY   80  76  87 CALM      30.03R
6HR MIN TEMP:  78; 6HR MAX TEMP:  82;

BEAUFORT ARPT  FAIR      81  79  94 CALM      30.03R
HILTON HEAD IS SUNNY     81  77  89 W3        30.04R
GEORGETOWN     NOT AVBL
WALTERBORO     SUNNY     79 N/A N/A CALM      30.05R
ORANGEBURG     SUNNY     76  71  85 CALM      30.04R
6HR MIN TEMP:  72; 6HR MAX TEMP:  76;

BARNWELL       FAIR      79  72  78 CALM      30.05R
AIKEN          FAIR      75  73  94 W3        30.09R
MANNING        FAIR      75 N/A N/A CALM      30.03S
KINGSTREE      NOT AVBL
COLUMBIA       PTSUNNY   76  68  76 CALM      30.03R
6HR MIN TEMP:  73; 6HR MAX TEMP:  78;

SUMTER         SUNNY     81  69  67 W8        30.02R
6HR MIN TEMP:  75; 6HR MAX TEMP:  81;

FLORENCE       MOSUNNY   77  71  82 W3        30.03R
6HR MIN TEMP:  72; 6HR MAX TEMP:  77;

MYRTLE BEACH   SUNNY     79  73  83 VRB6      30.02R
N MYRTLE BEACH NOT AVBL

$$

GAZ063-065-086>088-099>101-113>116-118-119-134-136>141-150-221300-
...GEORGIA...

CITY           SKY/WX    TMP DP  RH WIND       PRES   REMARKS
SAVANNAH ARPT  MOSUNNY   77  72  84 CALM      30.04R
6HR MIN TEMP:  75; 6HR MAX TEMP:  81;

HUNTER AAF     SUNNY     77  74  88 W2        30.02R
6HR MIN TEMP:  74; 6HR MAX TEMP:  80;

FORT STEWART   SUNNY     74  71  90 CALM      30.04R
6HR MIN TEMP:  72; 6HR MAX TEMP:  74;

STATESBORO     NOT AVBL
SYLVANIA       SUNNY     77  74  90 CALM      30.06R
CLAXTON        FAIR     N/A N/A N/A CALM      30.06R
THOMSON        SUNNY     75  75 100 CALM      30.12R
AUGUSTA-BUSH   SUNNY     74  70  87 CALM      30.05R
6HR MIN TEMP:  70; 6HR MAX TEMP:  74;

AUGUSTA-DANIEL SUNNY     79  70  74 NW6       30.07R
SWAINSBORO     FAIR      79  79 100 NW3       30.07R
VIDALIA          N/A     77  73  88 CALM      30.07R
ALMA           SUNNY     74  71  91 CALM      30.06R
6HR MIN TEMP:  72; 6HR MAX TEMP:  76;

WAYCROSS       SUNNY     79  75  87 W3        30.07S
JESUP            N/A     79  73  83 W3        30.06S
BRUNSWICK      SUNNY     79  72  78 W3        30.06S
SAINT SIMONS   SUNNY     77  72  84 W7        30.05R
6HR MIN TEMP:  76; 6HR MAX TEMP:  80;


$$

SCZ027-028-034-036>038-045-046-048>050-GAZ119-141-221300-
...LAKE AND SUPPLEMENTAL COASTAL OBSERVATIONS...

STATION/POSITION TIME  TEMP    WIND        PRES    WAVE   SWELL
                       AIR SEA DIR/SP/G            HT/PER HT/PER/DIR
                 (UTC) (F)     (DEG/KT/KT) (MB)    (FT/S) (FT/S/D)
UPR LAKE MARION  NOT AVBL
WINYAH BAY       1200   80     290/  5     1016.0S
LAKE MURRAY      1200   79     270/  2/  5 1016.6R
ACE BASIN NERRS  1200   78        CALM     1017.0S
FORT PULASKI     1200   81     290/  4/  5 1017.3R
SAPELO ISLAND    1200   79     270/  4     1018.0S

$$

ANZ835-935-AMZ111-154-330-350-352-354-374-450-454-472-221300-
...C-MAN AND BUOY OBSERVATIONS...

STATION/POSITION TIME  TEMP    WIND        PRES    WAVE   SWELL
                       AIR SEA DIR/SP/G            HT/PER HT/PER/DIR
                 (UTC) (F)     (DEG/KT/KT) (MB)    (FT/S) (FT/S/D)
FOLLY BEACH CMAN 1200   82     240/  2/  3 1017.2R
BUOY 41004       1200   84 84  260/  8/ 10 1016.1R   2/ 8   2/ 8
BUOY 41008       1200   84 85  270/  4/  6 1017.1R   1/ 3
5E ST. MARYS GA  1200      82                N/A     1/11
FRYING PAN BUOY  NOT AVBL
BUOY 41025       1200   82     260/ 10/ 12 1014.9R   2/ 9   2/ 40/ 9
CAPE LOOKOUT NC  1200   82     260/  8/ 10 1015.7R
BUOY 41002       1059   82 82  260/ 12/ 14 1017.7R   2/ 9   2/110/ 9
BUOY 41010       1200   84 86  220/  8/ 10 1018.5R   2/ 3   2/150/ 6
BUOY 41012       NOT AVBL
ST AUGUSTINE FL  1200   78     270/  5/  6 1019.2R
CAPERS NEARSHORE 1100   83     280/ 10/ 10   N/A
FRIPP NEARSHORE  NOT AVBL


$$


USA.gov is the U.S. government's official web portal to all federal, state and local government web resources and services.